This demonstration page uses our WeatherBlox Daily Observations layout. Learn more.

Left ArrowRight Arrow

39.71368, -82.59933

Hourly Observations for February 1, 2023

Temp ( °F °C ) Dew Point ( °F °C ) Humidity (%) Winds ( mph kmh ) Pressure ( in mb ) Visibility ( mi km ) Precip ( " mm )
12:53 am 00:53 Mostly Cloudy 21 -6.1 13 -10.6 70 70 N 7 11 30.33 1027 10 16 0.00 0.00
1:53 am 01:53 Mostly Clear 20 -6.7 11 -11.7 67 67 N 3 6 30.34 1027 10 16 0.00 0.00
2:53 am 02:53 Clear 20 -6.7 12 -11.1 71 71 Calm 30.36 1028 10 16 0.00 0.00
3:53 am 03:53 Clear 18 -7.8 11 -11.7 73 73 NNW 3 6 30.37 1028 10 16 0.00 0.00
4:53 am 04:53 Clear 17 -8.3 12 -11.1 80 80 Calm 30.37 1029 10 16 0.00 0.00
5:53 am 05:53 Clear 15 -9.4 10 -12.2 80 80 Calm 30.39 1029 10 16 0.00 0.00
6:53 am 06:53 Clear 14 -10 9 -12.8 80 80 Calm 30.40 1029 10 16 0.00 0.00
7:53 am 07:53 Sunny 14 -10 10 -12.2 84 84 Calm 30.42 1030 9 14 0.00 0.00
8:53 am 08:53 Sunny 18 -7.8 14 -10 84 84 Calm 30.44 1031 10 16 0.00 0.00
9:53 am 09:53 Sunny 20 -6.7 11 -11.7 67 67 N 5 7 30.45 1031 10 16 0.00 0.00
10:53 am 10:53 Sunny 23 -5 12 -11.1 62 62 N 5 7 30.45 1031 10 16 0.00 0.00
11:53 am 11:53 Sunny 24 -4.4 11 -11.7 57 57 NE 3 6 30.44 1031 10 16 0.00 0.00
12:53 pm 12:53 Sunny 26 -3.3 12 -11.1 55 55 Calm 30.42 1030 10 16 0.00 0.00
1:53 pm 13:53 Sunny 27 -2.8 13 -10.6 55 55 Calm 30.39 1029 10 16 0.00 0.00
2:53 pm 14:53 Sunny 28 -2.2 13 -10.6 52 52 W 6 9 30.37 1028 10 16 0.00 0.00
3:53 pm 15:53 Sunny 29 -1.7 12 -11.1 49 49 WSW 5 7 30.35 1028 10 16 0.00 0.00
4:53 pm 16:53 Sunny 28 -2.2 10 -12.2 46 46 W 6 9 30.37 1028 10 16 0.00 0.00
5:53 pm 17:53 Clear 26 -3.3 12 -11.1 55 55 W 3 6 30.36 1028 10 16 0.00 0.00
6:53 pm 18:53 Clear 25 -3.9 13 -10.6 60 60 Calm 30.37 1028 10 16 0.00 0.00
7:53 pm 19:53 Clear 25 -3.9 12 -11.1 57 57 Calm 30.35 1028 10 16 0.00 0.00
8:53 pm 20:53 Clear 21 -6.1 13 -10.6 70 70 Calm 30.36 1028 10 16 0.00 0.00
9:53 pm 21:53 Clear 22 -5.6 16 -8.9 77 77 Calm 30.35 1028 10 16 0.00 0.00
10:53 pm 22:53 Clear 21 -6.1 15 -9.4 77 77 Calm 30.33 1027 10 16 0.00 0.00
11:53 pm 23:53 Clear 21 -6.1 16 -8.9 80 80 Calm 30.32 1027 10 16 0.00 0.00

Powered by AerisWeather